Weather History for Owatonna, MN

Change the Weather History Date:

Wednesday, October 10, 2012

  Actual Average Record
Temperature  
Mean Temperature 42 °F -  
Max Temperature 55 °F 61 °F 80 °F (1962)
Min Temperature 28 °F 37 °F 25 °F (1964)
Degree Days  
Heating Degree Days 24    
Moisture  
Dew Point 18 °F    
Average Humidity 40    
Maximum Humidity 75    
Minimum Humidity 15    
Precipitation  
Precipitation 0.00 in - - ()
Sea Level Pressure  
Sea Level Pressure 30.03 in    
Wind  
Wind Speed 9 mph (WSW)    
Max Wind Speed 17 mph    
Max Gust Speed 25 mph    
Visibility 10 miles    
Events      
Averages and records for this station are not official NWS values.
T = Trace of Precipitation, MM = Missing Value Source: NWS Daily Summary

Daily Weather History Graph

Daily Weather History Graph

Search for Another Location

Airport:

Trip Planner

Search our weather history database for the weather conditions in past years. The results will help you decide how hot, cold, wet, or windy it might be!

Date:

Astronomy

Oct. 10, 2012 Rise Set
Actual Time 7:22 AM CDT 6:36 PM CDT
Civil Twilight 6:53 AM CDT 7:05 PM CDT
Nautical Twilight 6:19 AM CDT 7:39 PM CDT
Astronomical Twilight 5:46 AM CDT 8:12 PM CDT
Moon 1:48 AM CDT (10/10) 3:49 PM CDT (10/10)
Length of Visible Light 12h 12m
Length of Day
11h 14m
Waning Crescent, 27% of the Moon is Illuminated
Oct 10
Waning Crescent
Oct 15
New
Oct 21
First Quarter
Oct 29
Full
Nov 6
Last Quarter

Hourly Weather History & Observations

Time (CDT) Temp. Windchill Dew Point Humidity Pressure Visibility Wind Dir Wind Speed Gust Speed Precip Events Conditions
12:14 AM 37.4 °F 29.8 °F 19.4 °F 48% 29.99 in 10.0 mi WNW 11.5 mph - N/A   Clear
12:34 AM 37.4 °F 30.3 °F 19.4 °F 48% 30.00 in 10.0 mi WNW 10.4 mph - N/A   Clear
12:54 AM 37.4 °F 30.8 °F 19.4 °F 48% 30.00 in 10.0 mi West 9.2 mph - N/A   Clear
1:14 AM 35.6 °F 28.6 °F 21.2 °F 56% 30.00 in 10.0 mi West 9.2 mph - N/A   Clear
1:34 AM 33.8 °F 27.0 °F 21.2 °F 60% 30.00 in 10.0 mi West 8.1 mph - N/A   Clear
1:54 AM 32.0 °F 24.8 °F 21.2 °F 64% 30.01 in 10.0 mi West 8.1 mph - N/A   Clear
2:14 AM 30.2 °F 23.4 °F 19.4 °F 64% 30.01 in - West 6.9 mph - N/A   Unknown
2:34 AM 30.2 °F 23.4 °F 19.4 °F 64% 30.01 in 10.0 mi WSW 6.9 mph - N/A   Clear
2:54 AM 30.2 °F 21.9 °F 21.2 °F 69% 30.01 in 10.0 mi WSW 9.2 mph - N/A   Clear
3:14 AM 30.2 °F 24.3 °F 19.4 °F 64% 30.01 in 10.0 mi WSW 5.8 mph - N/A   Clear
3:34 AM 30.2 °F 24.3 °F 19.4 °F 64% 30.01 in 10.0 mi WSW 5.8 mph - N/A   Clear
3:54 AM 30.2 °F 26.7 °F 19.4 °F 64% 30.01 in 10.0 mi WSW 3.5 mph - N/A   Clear
4:14 AM 28.4 °F 23.3 °F 19.4 °F 69% 30.02 in 10.0 mi WSW 4.6 mph - N/A   Clear
4:34 AM 28.4 °F 24.6 °F 19.4 °F 69% 30.02 in 10.0 mi WSW 3.5 mph - N/A   Scattered Clouds
4:54 AM 30.2 °F 26.7 °F 21.2 °F 69% 30.02 in 10.0 mi West 3.5 mph - N/A   Overcast
5:14 AM 32.0 °F 27.5 °F 23.0 °F 69% 30.03 in 10.0 mi WSW 4.6 mph - N/A   Overcast
5:34 AM 33.8 °F 28.6 °F 23.0 °F 65% 30.03 in 10.0 mi WSW 5.8 mph - N/A   Unknown
5:54 AM 33.8 °F 28.6 °F 23.0 °F 65% 30.04 in 10.0 mi WSW 5.8 mph - N/A   Mostly Cloudy
6:14 AM 30.2 °F 23.4 °F 21.2 °F 69% 30.04 in 10.0 mi WSW 6.9 mph - N/A   Scattered Clouds
6:34 AM 30.2 °F 24.3 °F 21.2 °F 69% 30.05 in 10.0 mi SW 5.8 mph - N/A   Scattered Clouds
6:54 AM 30.2 °F 23.4 °F 21.2 °F 69% 30.06 in 10.0 mi SW 6.9 mph - N/A   Clear
7:34 AM 28.4 °F 23.3 °F 21.2 °F 74% 30.07 in 10.0 mi SW 4.6 mph - N/A   Clear
7:54 AM 30.2 °F 24.3 °F 21.2 °F 69% 30.08 in 10.0 mi SW 5.8 mph - N/A   Clear
8:14 AM 32.0 °F 26.4 °F 24.8 °F 75% 30.09 in 10.0 mi WSW 5.8 mph - N/A   Clear
8:34 AM 33.8 °F 29.6 °F 24.8 °F 70% 30.10 in 10.0 mi WSW 4.6 mph - N/A   Clear
8:54 AM 35.6 °F 31.7 °F 24.8 °F 65% 30.10 in 10.0 mi West 4.6 mph - N/A   Clear
9:14 AM 37.4 °F 30.8 °F 26.6 °F 65% 30.11 in 10.0 mi West 9.2 mph - N/A   Clear
9:34 AM 39.2 °F 33.0 °F 26.6 °F 61% 30.11 in 10.0 mi West 9.2 mph - N/A   Clear
9:54 AM 41.0 °F 35.2 °F 24.8 °F 53% 30.11 in 10.0 mi WNW 9.2 mph - N/A   Clear
10:14 AM 42.8 °F 37.0 °F 24.8 °F 49% 30.11 in 10.0 mi West 10.4 mph - N/A   Clear
10:34 AM 44.6 °F 40.2 °F 23.0 °F 43% 30.11 in 10.0 mi West 8.1 mph - N/A   Clear
10:54 AM 46.4 °F 41.5 °F 19.4 °F 34% 30.11 in 10.0 mi WNW 10.4 mph 16.1 mph N/A   Clear
11:14 AM 46.4 °F 41.9 °F 15.8 °F 29% 30.11 in 10.0 mi West 9.2 mph 18.4 mph N/A   Clear
11:34 AM 48.2 °F - 15.8 °F 27% 30.11 in 10.0 mi West 9.2 mph - N/A   Clear
11:54 AM 48.2 °F - 15.8 °F 27% 30.11 in 10.0 mi West 10.4 mph 19.6 mph N/A   Clear
12:14 PM 48.2 °F - 15.8 °F 27% 30.12 in 10.0 mi West 13.8 mph - N/A   Unknown
12:34 PM 50.0 °F - 15.8 °F 26% 30.11 in 10.0 mi West 13.8 mph 19.6 mph N/A   Unknown
12:54 PM 50.0 °F - 15.8 °F 26% 30.10 in 10.0 mi West 15.0 mph 18.4 mph N/A   Clear
1:14 PM 50.0 °F - 17.6 °F 28% 30.10 in 10.0 mi WSW 16.1 mph 25.3 mph N/A   Scattered Clouds
1:34 PM 51.8 °F - 15.8 °F 24% 30.09 in 10.0 mi West 12.7 mph - N/A   Scattered Clouds
1:54 PM 53.6 °F - 14.0 °F 21% 30.08 in 10.0 mi WSW 12.7 mph 20.7 mph N/A   Scattered Clouds
2:14 PM 53.6 °F - 12.2 °F 19% 30.07 in 10.0 mi West 15.0 mph 23.0 mph N/A   Unknown
2:34 PM 53.6 °F - 12.2 °F 19% 30.06 in 10.0 mi WSW 17.3 mph - N/A   Unknown
2:54 PM 53.6 °F - 10.4 °F 18% 30.06 in 10.0 mi West 11.5 mph 18.4 mph N/A   Mostly Cloudy
3:14 PM 53.6 °F - 10.4 °F 18% 30.05 in 10.0 mi West 9.2 mph - N/A   Mostly Cloudy
3:34 PM 53.6 °F - 12.2 °F 19% 30.05 in 10.0 mi West 10.4 mph 17.3 mph N/A   Mostly Cloudy
3:54 PM 55.4 °F - 12.2 °F 18% 30.04 in 10.0 mi SW 15.0 mph 19.6 mph N/A   Overcast
4:14 PM 55.4 °F - 12.2 °F 18% 30.03 in 10.0 mi WSW 11.5 mph 21.9 mph N/A   Scattered Clouds
4:34 PM 55.4 °F - 12.2 °F 18% 30.03 in 10.0 mi WSW 11.5 mph 19.6 mph N/A   Clear
4:54 PM 55.4 °F - 10.4 °F 17% 30.02 in 10.0 mi WSW 11.5 mph - N/A   Clear
5:14 PM 55.4 °F - 8.6 °F 15% 30.01 in 10.0 mi WSW 17.3 mph - N/A   Clear
5:34 PM 55.4 °F - 10.4 °F 17% 30.01 in 10.0 mi SW 10.4 mph - N/A   Clear
5:54 PM 55.4 °F - 10.4 °F 17% 30.00 in 10.0 mi SW 6.9 mph - N/A   Clear
6:14 PM 53.6 °F - 10.4 °F 18% 30.01 in 10.0 mi WSW 5.8 mph - N/A   Mostly Cloudy
6:34 PM 53.6 °F - 14.0 °F 21% 30.00 in 7.0 mi SSW 3.5 mph - N/A   Overcast
6:54 PM 51.8 °F - 14.0 °F 22% 29.99 in 10.0 mi South 6.9 mph - N/A   Unknown
7:14 PM 53.6 °F - 10.4 °F 18% 29.98 in 10.0 mi South 8.1 mph - N/A   Unknown
7:34 PM 53.6 °F - 12.2 °F 19% 29.99 in 10.0 mi South 8.1 mph - N/A   Overcast
7:54 PM 53.6 °F - 12.2 °F 19% 29.98 in 10.0 mi South 8.1 mph - N/A   Mostly Cloudy
8:14 PM 53.6 °F - 14.0 °F 21% 29.97 in 10.0 mi South 9.2 mph - N/A   Mostly Cloudy
8:34 PM 53.6 °F - 14.0 °F 21% 29.96 in 10.0 mi South 12.7 mph - N/A   Unknown
8:54 PM 51.8 °F - 15.8 °F 24% 29.95 in 10.0 mi South 15.0 mph - N/A   Unknown
9:14 PM 51.8 °F - 17.6 °F 26% 29.95 in 10.0 mi South 13.8 mph - N/A   Unknown
9:34 PM 51.8 °F - 17.6 °F 26% 29.94 in 10.0 mi South 16.1 mph 21.9 mph N/A   Overcast
9:54 PM 51.8 °F - 17.6 °F 26% 29.94 in 10.0 mi South 16.1 mph - N/A   Overcast
10:14 PM 51.8 °F - 17.6 °F 26% 29.93 in 10.0 mi South 16.1 mph 20.7 mph N/A   Overcast
10:34 PM 51.8 °F - 17.6 °F 26% 29.93 in 10.0 mi South 15.0 mph - N/A   Scattered Clouds
10:54 PM 51.8 °F - 17.6 °F 26% 29.92 in 10.0 mi South 16.1 mph 20.7 mph N/A   Scattered Clouds
11:14 PM 50.0 °F - 19.4 °F 30% 29.91 in 10.0 mi South 13.8 mph - N/A   Clear
11:34 PM 48.2 °F - 19.4 °F 32% 29.90 in 10.0 mi South 15.0 mph 18.4 mph N/A   Scattered Clouds
11:54 PM 48.2 °F - 19.4 °F 32% 29.89 in 10.0 mi South 16.1 mph - N/A   Clear